Volkel, Netherlands

2:03 AM CET on February 28, 2017 (GMT +0100)
Volkel Air Base

Weather History for EHVK - March, 2014

Change the Weather History Date:

Friday, March 28, 2014

  Actual Average Record
Temperature  
Mean Temperature 50 °F -  
Max Temperature 63 °F 56 °F 68 °F (2003)
Min Temperature 37 °F 39 °F 24 °F (2002)
Degree Days  
Heating Degree Days 15    
Moisture  
Dew Point 39 °F    
Average Humidity 62    
Maximum Humidity 87    
Minimum Humidity 32    
Precipitation  
Precipitation 0.00 in - - ()
Sea Level Pressure  
Sea Level Pressure 30.02 in    
Wind  
Wind Speed 9 mph ()    
Max Wind Speed 16 mph    
Max Gust Speed -    
Visibility 7.3 miles    
Events      
Averages and records for this station are not official NWS values.
T = Trace of Precipitation, MM = Missing Value Source: Averaged Metar Reports

Daily Weather History Graph

Daily Weather History Graph

Search for Another Location

Airport or City:

Trip Planner

Search our weather history database for the weather conditions in past years. The results will help you decide how hot, cold, wet, or windy it might be!

Date:

Astronomy

Mar. 28, 2014 Rise Set
Actual Time 6:21 AM CET 7:03 PM CET
Civil Twilight 5:48 AM CET 7:37 PM CET
Nautical Twilight 5:07 AM CET 8:17 PM CET
Astronomical Twilight 4:25 AM CET 9:01 PM CET
Moon 5:00 AM CET 4:27 PM CET
Length of Visible Light 13h 49m
Length of Day
12h 41m
Waning Crescent, 7% of the Moon is Illuminated
Mar 28
Waning Crescent
Mar 30
New
Apr 7
First Quarter
Apr 15
Full
Apr 22
Last Quarter

Hourly Weather History & Observations

Time (CET) Temp. Windchill Dew Point Humidity Pressure Visibility Wind Dir Wind Speed Gust Speed Precip Events Conditions
12:00 AM 47 °F - 36 °F 57% 29.95 in 12 mi ENE 11.2 mph - -   Mostly Cloudy
12:25 AM 46.4 °F 41.5 °F 37.4 °F 71% 29.95 in 6.2 mi ENE 10.4 mph - N/A   Mostly Cloudy
12:55 AM 46.4 °F 41.9 °F 37.4 °F 71% 29.95 in 6.2 mi ENE 9.2 mph - N/A   Overcast
1:00 AM 46 °F - 36 °F 60% 29.96 in 11 mi ENE 8.9 mph - -   Partly Cloudy
1:25 AM 46.4 °F 42.4 °F 37.4 °F 71% 29.95 in 6.2 mi ENE 8.1 mph - N/A   Overcast
1:55 AM 46.4 °F 42.4 °F 35.6 °F 66% 29.95 in 6.2 mi ENE 8.1 mph - N/A   Mostly Cloudy
2:00 AM 46 °F - 36 °F 59% 29.97 in 10 mi ENE 8.9 mph - -   Mostly Cloudy
2:25 AM 44.6 °F 40.2 °F 35.6 °F 71% 29.95 in 6.2 mi ENE 8.1 mph - N/A   Overcast
2:55 AM 42.8 °F 38.0 °F 35.6 °F 76% 29.95 in 6.2 mi ENE 8.1 mph - N/A   Mostly Cloudy
3:00 AM 44 °F - 36 °F 65% 29.98 in 9 mi ENE 6.7 mph - -   Mostly Cloudy
3:25 AM 42.8 °F 38.0 °F 35.6 °F 76% 29.95 in 6.2 mi ENE 8.1 mph - N/A   Mostly Cloudy
3:55 AM 42.8 °F 37.5 °F 35.6 °F 76% 29.98 in 6.2 mi ENE 9.2 mph - N/A   Mostly Cloudy
4:00 AM 43 °F - 36 °F 67% 29.98 in 8 mi ENE 8.9 mph - -   Mostly Cloudy
4:25 AM 42.8 °F 38.0 °F 35.6 °F 76% 29.98 in 6.2 mi ENE 8.1 mph - N/A   Overcast
4:55 AM 41.0 °F 35.8 °F 35.6 °F 81% 29.98 in 6.2 mi ENE 8.1 mph - N/A   Overcast
5:00 AM 41 °F - 35 °F 72% 29.99 in 7 mi ENE 8.9 mph - -   Partly Cloudy
5:25 AM 39.2 °F 35.0 °F 33.8 °F 81% 29.98 in 6.2 mi East 5.8 mph - N/A   Scattered Clouds
5:55 AM 39.2 °F 35.0 °F 33.8 °F 81% 29.98 in 6.2 mi ENE 5.8 mph - N/A   Unknown
6:00 AM 39 °F - 33 °F 73% 30.00 in 8 mi ENE 6.7 mph - -   Scattered Clouds
6:25 AM 39.2 °F 34.2 °F 33.8 °F 81% 29.98 in 6.2 mi ENE 6.9 mph - N/A   Scattered Clouds
6:55 AM 39.2 °F 33.6 °F 33.8 °F 81% 30.01 in 6.2 mi ENE 8.1 mph - N/A   Mostly Cloudy
7:00 AM 40 °F - 35 °F 76% 30.01 in 6 mi ENE 8.9 mph - -   Partly Cloudy
7:25 AM 41.0 °F 36.4 °F 35.6 °F 81% 30.01 in 6.2 mi ENE 6.9 mph - N/A   Mostly Cloudy
7:43 AM 42.8 °F 37.5 °F 37.4 °F 81% 30.01 in 6.2 mi ENE 9.2 mph - N/A   Partly Cloudy
7:55 AM 44.6 °F 39.7 °F 37.4 °F 76% 30.01 in 6.2 mi ENE 9.2 mph - N/A   Mostly Cloudy
8:00 AM 45 °F - 36 °F 63% 30.03 in 9 mi ENE 11.2 mph - -   Partly Cloudy
8:25 AM 44.6 °F 38.8 °F 35.6 °F 71% 30.01 in 6.2 mi East 11.5 mph - N/A   Unknown
8:55 AM 46.4 °F 41.1 °F 37.4 °F 71% 30.01 in 6.2 mi ENE 11.5 mph - N/A   Unknown
9:00 AM 47 °F - 38 °F 62% 30.04 in 10 mi ENE 11.2 mph - -   Scattered Clouds
9:25 AM 50.0 °F - 39.2 °F 66% 30.04 in 6.2 mi East 9.2 mph - N/A   Scattered Clouds
9:55 AM 51.8 °F - 39.2 °F 62% 30.04 in 6.2 mi East 9.2 mph - N/A   Partly Cloudy
10:00 AM 51 °F - 39 °F 53% 30.05 in 11 mi East 8.9 mph - -   Scattered Clouds
10:25 AM 51.8 °F - 41.0 °F 67% 30.04 in 6.2 mi ENE 10.4 mph - N/A   Unknown
10:55 AM 53.6 °F - 39.2 °F 58% 30.04 in 6.2 mi East 10.4 mph - N/A   Partly Cloudy
11:00 AM 54 °F - 41 °F 50% 30.05 in 9 mi East 8.9 mph - -   Scattered Clouds
11:25 AM 57.2 °F - 41.0 °F 55% 30.04 in 6.2 mi ENE 11.5 mph - N/A   Unknown
11:29 AM 57.2 °F - 41.0 °F 55% 30.04 in 6.2 mi East 10.4 mph - N/A   Unknown
11:55 AM 57.2 °F - 42.8 °F 59% 30.04 in 6.2 mi East 11.5 mph - N/A   Partly Cloudy
12:00 PM 58 °F - 42 °F 44% 30.04 in 11 mi East 11.2 mph - -   Scattered Clouds
12:25 PM 59.0 °F - 42.8 °F 55% 30.04 in 6.2 mi East 11.5 mph - N/A   Partly Cloudy
12:55 PM 60.8 °F - 42.8 °F 52% 30.04 in 6.2 mi East 12.7 mph - N/A   Unknown
1:00 PM 61 °F - 42 °F 39% 30.04 in 11 mi East 13.4 mph - -   Partly Cloudy
1:25 PM 60.8 °F - 41.0 °F 48% 30.01 in 6.2 mi East 15.0 mph - N/A   Unknown
1:42 PM 62.6 °F - 42.8 °F 48% 30.01 in 6.2 mi East 13.8 mph - N/A   Partly Cloudy
1:55 PM 62.6 °F - 42.8 °F 48% 30.01 in 6.2 mi East 12.7 mph - N/A   Unknown
2:00 PM 64 °F - 43 °F 35% 30.04 in 14 mi East 13.4 mph - -  
2:11 PM 62.6 °F - 42.8 °F 48% 30.01 in 6.2 mi East 15.0 mph - N/A   Partly Cloudy
2:25 PM 62.6 °F - 42.8 °F 48% 30.01 in 6.2 mi East 13.8 mph - N/A   Scattered Clouds
2:55 PM 62.6 °F - 42.8 °F 48% 30.01 in 6.2 mi ENE 15.0 mph - N/A   Partly Cloudy
3:00 PM 62 °F - 42 °F 37% 30.02 in 11 mi ENE 15.7 mph - -   Scattered Clouds
3:19 PM 60.8 °F - 42.8 °F 52% 30.01 in 6.2 mi East 16.1 mph - N/A   Scattered Clouds
3:25 PM 62.6 °F - 42.8 °F 48% 30.01 in 6.2 mi East 15.0 mph - N/A   Scattered Clouds
3:55 PM 62.6 °F - 41.0 °F 45% 30.01 in 6.2 mi East 13.8 mph - N/A   Partly Cloudy
4:00 PM 63 °F - 40 °F 32% 30.01 in 17 mi ENE 15.7 mph - -   Partly Cloudy
4:25 PM 62.6 °F - 41.0 °F 45% 30.01 in 6.2 mi ENE 15.0 mph - N/A   Overcast
4:55 PM 60.8 °F - 41.0 °F 48% 30.01 in 6.2 mi East 15.0 mph - N/A   Mostly Cloudy
5:00 PM 62 °F - 40 °F 33% 30.01 in 13 mi East 13.4 mph - -   Mostly Cloudy
5:25 PM 60.8 °F - 41.0 °F 48% 30.01 in 6.2 mi ENE 10.4 mph - N/A   Scattered Clouds
5:55 PM 59.0 °F - 42.8 °F 55% 30.01 in 6.2 mi ENE 12.7 mph - N/A   Scattered Clouds
6:00 PM 59 °F - 40 °F 38% 30.02 in 14 mi ENE 11.2 mph - -   Partly Cloudy
6:25 PM 57.2 °F - 39.2 °F 51% 30.01 in 6.2 mi ENE 12.7 mph - N/A   Unknown
6:55 PM 55.4 °F - 37.4 °F 51% 30.01 in 6.2 mi East 12.7 mph - N/A   Unknown
7:00 PM 55 °F - 38 °F 41% 30.04 in 17 mi East 11.2 mph - -   Partly Cloudy
7:25 PM 50.0 °F - 37.4 °F 62% 30.04 in 6.2 mi ENE 8.1 mph - N/A   Partly Cloudy
7:55 PM 50.0 °F - 39.2 °F 66% 30.04 in 6.2 mi ENE 9.2 mph - N/A   Partly Cloudy
8:00 PM 51 °F - 39 °F 52% 30.05 in 11 mi ENE 11.2 mph - -   Scattered Clouds
8:25 PM 51.8 °F - 39.2 °F 62% 30.04 in 6.2 mi ENE 11.5 mph - N/A   Partly Cloudy
8:55 PM 50.0 °F - 41.0 °F 71% 30.06 in 6.2 mi ENE 11.5 mph - N/A   Unknown
9:00 PM 50 °F - 41 °F 62% 30.07 in 7 mi ENE 11.2 mph - -  
9:25 PM 50.0 °F - 41.0 °F 71% 30.06 in 6.2 mi ENE 12.7 mph - N/A   Unknown
9:55 PM 48.2 °F - 41.0 °F 76% 30.06 in 5.0 mi ENE 10.4 mph - N/A   Haze
9:56 PM 48.2 °F - 41.0 °F 76% 30.06 in 4.3 mi ENE 9.2 mph - N/A   Haze
10:00 PM 47 °F - 40 °F 71% 30.08 in 4 mi ENE 8.9 mph - -   Light Haze
10:25 PM 46.4 °F 41.9 °F 41.0 °F 81% 30.06 in 3.7 mi ENE 9.2 mph - N/A   Haze
10:55 PM 44.6 °F 39.7 °F 39.2 °F 81% 30.06 in 3.7 mi ENE 9.2 mph - N/A   Haze
11:00 PM 46 °F - 40 °F 73% 30.08 in 4 mi East 8.9 mph - -   Light Haze
11:25 PM 44.6 °F 39.7 °F 39.2 °F 81% 30.06 in 3.7 mi ENE 9.2 mph - N/A   Haze
11:55 PM 42.8 °F 38.0 °F 39.2 °F 87% 30.06 in 3.7 mi ENE 8.1 mph - N/A   Haze